Tracking 29892 objects as of 21-Nov-2024
HD Live streaming from Space Station
objects crossing your sky now

STARLINK-31654

Track STARLINK-31654 now!
10-day predictions
STARLINK-31654 is classified as:


NORAD ID: 59858
Int'l Code: 2024-098A
Perigee: 449.5 km
Apogee: 452.8 km
Inclination: 43.0 °
Period: 93.5 minutes
Semi major axis: 6822 km
RCS: Unknown
Launch date: May 24, 2024
Source: United States (US)
Launch site: AIR FORCE EASTERN TEST RANGE (AFETR)
Your satellite tracking list
Your tracking list is empty




NASA's NSSDC Master Catalog

Two Line Element Set (TLE):
1 59858U 24098A   24325.81962816  .00001552  00000-0  44404-4 0  9998
2 59858  43.0009  92.3655 0002432 263.9727  96.0852 15.40705237 29151
Source of the keplerian elements: AFSPC